Location: Unspecified
(0.0000°N, 0.0000°E)
Time: 07:21:29
(UTC+00:00)

METEOR M2 - Pass Details

Date: 28 November 2022
Orbit: 818 x 827 km, 98.4° (Epoch: 01 February)

Event Time Altitude Azimuth Distance (km) Brightness Sun altitude
Rises 18:21:18 0° 171° (S) 3,359 ? -7.7°
Reaches altitude 10° 18:23:39 10° 173° (S) 2,426 ? -8.3°
Maximum altitude 18:29:01 74° 257° (WSW) 857 ? -9.5°
Drops below altitude 10° 18:34:22 10° 343° (NNW) 2,419 ? -10.8°
Sets 18:36:43 0° 344° (NNW) 3,350 ? -11.3°
